[[{"header":{"parameterUnit":"m.s-1","parameterCategory":1,"la1":30.2991,"la2":30.254,"lo1":-89.0895,"lo2":-89.0444,"dy":0.0017,"dx":0.0017,"nx":28,"ny":28,"refTime":"2025-03-11T03:00:00:Z","depth":0,"parameterNumber":2,"parameterNumberName":"U-component_of_WINDS"},"data":[0,0,0,0,0,0,0,0,0,0,0,0,0,0,0,0,0,0,0,0,0,0,0,0,0,0,0,0,0,0,0,0,0,0,0,0,0,0,0,0,0,0,0,0,0,0,0,0,0,0,0,0,0,0,0,0,0,0,3.1787,3.1789,0,3.1913,3.1914,3.1916,3.1932,3.1931,3.1929,3.1928,3.2059,3.2064,3.2068,0,0,0,0,0,0,0,0,0,0,0,0,0,3.1562,3.1566,3.1787,3.1789,3.179,3.1913,3.1914,3.1916,3.1932,3.1931,3.1929,3.1928,3.2058,3.2063,3.2069,0,0,0,0,0,0,0,0,0,0,0,0,0,3.1671,3.1568,3.1787,3.1813,3.1817,3.1912,3.1914,3.1917,3.1932,3.1931,3.1929,3.1927,3.2056,3.2063,3.2069,3.2148,0,0,3.209,3.2093,0,0,0,0,0,0,0,0,3.1665,3.1679,3.1808,3.1811,3.1816,3.1905,3.1883,3.1994,3.1933,3.1889,3.1928,3.1926,3.2009,3.202,3.2048,3.2155,3.216,3.2091,3.2095,3.2098,3.21,0,0,0,0,0,0,0,3.1657,3.1674,3.1837,3.1809,3.1814,3.1819,3.1832,3.1904,3.1958,3.1892,3.1894,3.1908,3.2011,3.2041,3.2051,3.2162,3.2091,3.2097,3.2101,3.2104,3.2339,3.2341,0,0,0,0,0,0,3.1645,3.1668,3.1833,3.1841,3.1734,3.1824,3.1839,3.1878,3.1957,3.1967,3.191,3.1909,3.203,3.2043,3.2055,3.2152,3.2098,3.2105,3.2109,3.2337,3.2339,3.2342,0,0,0,0,0,0,3.164,3.1659,3.1828,3.1755,3.1776,3.183,3.1873,3.1881,3.1911,3.197,3.198,3.193,3.2029,3.2046,3.2125,3.2157,3.2108,3.2114,3.2334,3.2338,3.234,3.2346,0,0,0,0,0,0,3.1633,3.1658,3.1688,3.1755,3.178,3.1895,3.1875,3.1885,3.1923,3.1922,3.1992,3.2002,3.2029,3.2114,3.2132,3.2165,3.2119,3.2332,3.2336,3.2339,3.2343,3.2349,3.2354,0,0,0,0,0,3.1625,3.1685,3.1689,3.1709,3.1819,3.1896,3.1911,3.194,3.1925,3.1956,3.1994,3.1999,3.2151,3.2122,3.2142,3.2178,3.233,3.2335,3.2339,3.2341,3.2348,3.2354,0,0,0,0,0,0,3.1621,3.1695,3.17,3.1783,3.1833,3.1899,3.1939,3.1947,3.2003,3.2001,3.2036,3.2051,3.2128,3.2162,3.2129,3.2258,3.2239,3.2248,3.2234,3.2241,3.2246,3.2236,3.2125,0,0,0,0,0,3.163,3.1686,3.1747,3.1815,3.184,3.1885,3.192,3.1938,3.1992,3.2013,3.2057,3.2109,3.2168,3.2207,3.2265,3.2349,3.2363,3.2383,3.2389,3.2393,3.24,3.2445,3.2454,3.2357,3.2357,3.2357,0,0,3.1648,3.1695,3.1729,3.1815,3.1856,3.1913,3.1903,3.1964,3.2007,3.2023,3.2099,3.2133,3.2194,3.2275,3.2313,3.2305,3.243,3.2399,3.2402,3.2406,3.2451,3.246,3.2468,3.236,3.236,3.2359,0,0,3.1711,3.1753,3.1813,3.1854,3.1916,3.1945,3.196,3.2024,3.2047,3.2124,3.2137,3.2189,3.2291,3.2333,3.2368,3.2446,3.2452,3.2464,3.2491,3.2535,3.2543,3.255,3.2576,3.2586,3.2471,3.2471,3.2471,0,3.1726,3.1813,3.1843,3.1904,3.1941,3.1957,3.2018,3.2057,3.2135,3.216,3.215,3.2277,3.2319,3.241,3.2429,3.2457,3.2474,3.2455,3.2539,3.2547,3.2554,3.2579,3.2589,3.2472,3.2471,3.2471,3.2471,0,3.1828,3.1888,3.1929,3.2002,3.2045,3.2105,3.2145,3.2184,3.2199,3.223,3.2308,3.2359,3.2426,3.245,3.2466,3.2543,3.2536,3.2532,3.2513,3.2563,3.2588,3.2598,3.2473,3.2473,3.2472,3.2472,0,0,3.1891,3.198,3.1994,3.2027,3.2097,3.2144,3.2205,3.2271,3.2303,3.2356,3.2408,3.2493,3.249,3.253,3.255,3.2589,3.2646,3.2581,3.2583,3.259,3.2733,3.2733,3.2744,3.2651,3.2653,3.2655,3.2727,0,3.196,3.2069,3.2098,3.219,3.2245,3.2262,3.2315,3.2363,3.2394,3.2445,3.2479,3.2538,3.253,3.2554,3.2593,3.263,3.2675,3.2626,3.2699,3.2701,3.2682,3.2758,3.2759,3.2825,3.2737,3.2739,3.274,0,3.2056,3.211,3.2207,3.2268,3.2293,3.234,3.2402,3.2451,3.2506,3.2525,3.2569,3.2586,3.265,3.2628,3.2717,3.2683,3.2715,3.2738,3.2741,3.2748,3.2722,3.2765,3.2847,3.2856,3.2756,3.2754,3.2753,0,3.209,3.2187,3.2258,3.2286,3.236,3.2392,3.2424,3.2478,3.2515,3.2569,3.2594,3.2655,3.2689,3.2736,3.2769,3.275,3.2855,3.2836,3.2872,3.2871,3.2892,3.289,3.2978,3.2915,3.2915,3.2915,3.2914,0,3.2164,3.2222,3.2274,3.2317,3.2383,3.2416,3.2481,3.2514,3.2561,3.2611,3.263,3.2676,3.2717,3.2769,3.2796,3.2864,3.288,3.2897,3.2903,3.2895,3.2892,3.2915,3.2911,3.2917,3.2917,3.2916,3.2916,0,3.2212,3.2249,3.2327,3.239,3.2407,3.2453,3.2507,3.255,3.2581,3.2644,3.2661,3.2709,3.2771,3.2809,3.2888,3.2906,3.2981,3.2986,3.2962,3.2965,3.2998,3.2993,3.3103,3.3118,3.3046,3.3046,3.3047,0,3.2256,3.2301,3.2369,3.2403,3.2436,3.2491,3.2529,3.2563,3.2602,3.2668,3.2702,3.2766,3.2818,3.2916,3.2959,3.3019,3.3025,3.3059,3.3034,3.3024,3.3024,3.302,3.3024,3.3063,3.3063,3.3064,3.3064,0,3.2329,3.2345,3.2399,3.2458,3.2503,3.2552,3.2601,3.2628,3.2671,3.2713,3.2776,3.2817,3.2897,3.2959,3.3023,3.3057,3.3067,3.3072,3.3083,3.3074,3.3058,3.3065,3.2972,3.3069,3.3069,3.3068,3.3068,3.3068,3.2376,3.2416,3.247,3.2529,3.2569,3.2614,3.2657,3.2693,3.2746,3.2813,3.2831,3.2897,3.295,3.3037,3.3072,3.3124,3.3119,3.3135,3.3139,3.3143,3.3142,3.305,3.3136,3.3136,3.3136,3.3136,3.3136,0,3.2449,3.2484,3.2538,3.2605,3.2651,3.2657,3.2711,3.2749,3.2807,3.2856,3.2907,3.2979,3.3039,3.3086,3.3148,3.3181,3.3187,3.3196,3.3193,3.32,3.3144,3.3128,3.3189,3.3189,3.3189,3.3189,3.3189,3.3189,3.2492,3.256,3.2582,3.2671,3.2706,3.277,3.2801,3.2842,3.2881,3.2961,3.301,3.3041,3.3089,3.3154,3.321,3.3222,3.3243,3.325,3.3263,3.321,3.3204,3.3199,3.3183,3.3255,3.3255,3.3315,3.3315,3.3316]},{"header":{"parameterUnit":"m.s-1","parameterCategory":1,"la1":30.2991,"la2":30.254,"lo1":-89.0895,"lo2":-89.0444,"dy":0.0017,"dx":0.0017,"nx":28,"ny":28,"refTime":"2025-03-11T03:00:00:Z","depth":0,"parameterNumber":3,"parameterNumberName":"V-component_of_WINDS"},"data":[0,0,0,0,0,0,0,0,0,0,0,0,0,0,0,0,0,0,0,0,0,0,0,0,0,0,0,0,0,0,0,0,0,0,0,0,0,0,0,0,0,0,0,0,0,0,0,0,0,0,0,0,0,0,0,0,0,0,3.3058,3.3058,0,3.3063,3.3063,3.3063,3.3073,3.3073,3.3073,3.3074,3.3076,3.3076,3.3076,0,0,0,0,0,0,0,0,0,0,0,0,0,3.3053,3.3053,3.3058,3.3058,3.3058,3.3063,3.3063,3.3063,3.3073,3.3073,3.3074,3.3074,3.3076,3.3076,3.3076,0,0,0,0,0,0,0,0,0,0,0,0,0,3.3056,3.3053,3.3058,3.3063,3.3064,3.3063,3.3063,3.3063,3.3073,3.3073,3.3074,3.3074,3.3077,3.3076,3.3076,3.307,0,0,3.3076,3.3076,0,0,0,0,0,0,0,0,3.3056,3.3056,3.3062,3.3063,3.3064,3.3068,3.3063,3.3065,3.3073,3.3069,3.3074,3.3074,3.3073,3.3073,3.3074,3.307,3.307,3.3076,3.3076,3.3076,3.3076,0,0,0,0,0,0,0,3.3056,3.3056,3.306,3.3062,3.3063,3.3065,3.3066,3.3063,3.3069,3.307,3.307,3.3071,3.3073,3.3074,3.3074,3.307,3.3076,3.3076,3.3076,3.3075,3.3061,3.3061,0,0,0,0,0,0,3.3055,3.3056,3.306,3.306,3.3061,3.3065,3.3066,3.3066,3.307,3.307,3.3071,3.3072,3.3074,3.3074,3.3074,3.3067,3.3076,3.3075,3.3075,3.3062,3.3061,3.3061,0,0,0,0,0,0,3.3055,3.3055,3.3059,3.3058,3.3059,3.3065,3.3065,3.3066,3.3066,3.3071,3.3071,3.307,3.3074,3.3074,3.3071,3.3067,3.3075,3.3075,3.3062,3.3062,3.3061,3.3052,0,0,0,0,0,0,3.3055,3.3055,3.3053,3.3058,3.3059,3.3057,3.3065,3.3066,3.3066,3.3067,3.307,3.3071,3.3074,3.3071,3.3071,3.3067,3.3075,3.3062,3.3062,3.3061,3.3052,3.3051,3.305,0,0,0,0,0,3.3055,3.3049,3.3053,3.3053,3.3057,3.3057,3.3057,3.3062,3.3066,3.3064,3.3067,3.3071,3.3068,3.3071,3.307,3.3066,3.3063,3.3062,3.3061,3.3053,3.3051,3.305,0,0,0,0,0,0,3.3042,3.305,3.3054,3.3051,3.3053,3.3058,3.3055,3.306,3.306,3.3061,3.3067,3.3067,3.3063,3.3064,3.3068,3.306,3.3066,3.3065,3.306,3.3058,3.3057,3.3056,3.3075,0,0,0,0,0,3.3039,3.304,3.3046,3.3042,3.3044,3.3049,3.3049,3.3053,3.3056,3.3056,3.3059,3.306,3.306,3.3059,3.3059,3.3053,3.3054,3.305,3.3049,3.3048,3.3047,3.3044,3.3043,3.3059,3.3059,3.3059,0,0,3.3033,3.3037,3.3037,3.304,3.3042,3.3042,3.305,3.3049,3.3048,3.3056,3.3053,3.3055,3.3057,3.3053,3.3051,3.3054,3.3043,3.3047,3.3046,3.3046,3.3043,3.3042,3.304,3.3059,3.3059,3.3059,0,0,3.3021,3.3024,3.3022,3.3024,3.3029,3.3033,3.3032,3.3037,3.3039,3.3037,3.3043,3.3042,3.3041,3.3042,3.3043,3.3033,3.3036,3.3032,3.3025,3.3023,3.3021,3.302,3.3017,3.3015,3.3032,3.3032,3.3032,0,3.3012,3.3012,3.3019,3.3019,3.302,3.3028,3.3026,3.3027,3.3031,3.3031,3.3035,3.3034,3.3036,3.3032,3.303,3.303,3.3029,3.3032,3.3021,3.302,3.3019,3.3016,3.3014,3.3031,3.3031,3.3031,3.3031,0,3.3001,3.3001,3.2998,3.3003,3.3004,3.3002,3.3009,3.3009,3.3013,3.3017,3.3015,3.3017,3.3018,3.3018,3.3021,3.3015,3.3016,3.3021,3.3026,3.3017,3.3014,3.3013,3.303,3.3031,3.3031,3.3031,0,0,3.2979,3.2989,3.2988,3.2991,3.2997,3.2996,3.2995,3.2997,3.2997,3.2999,3.2998,3.2998,3.3002,3.3003,3.3006,3.3004,3.2996,3.3009,3.3009,3.3006,3.2989,3.2986,3.2984,3.2999,3.2999,3.2999,3.2989,0,3.2968,3.2967,3.2974,3.2971,3.2971,3.298,3.2979,3.2982,3.2986,3.2986,3.299,3.299,3.2995,3.2996,3.2994,3.2998,3.2993,3.2999,3.2997,3.2997,3.2996,3.2982,3.2978,3.2968,3.2988,3.2988,3.2987,0,3.2954,3.2957,3.2954,3.2961,3.2962,3.296,3.2963,3.2964,3.2968,3.2971,3.2972,3.2977,3.2976,3.2982,3.298,3.2984,3.2984,3.2986,3.2985,3.2985,3.2991,3.2981,3.2965,3.2964,3.2986,3.2986,3.2986,0,3.2938,3.2941,3.294,3.2942,3.2951,3.295,3.2953,3.2958,3.2959,3.2961,3.2962,3.2963,3.2964,3.2965,3.297,3.2974,3.2968,3.2974,3.2969,3.2969,3.2967,3.2966,3.2951,3.2968,3.2968,3.2968,3.2968,0,3.2924,3.2921,3.2934,3.2933,3.2931,3.294,3.2937,3.2941,3.2945,3.2945,3.2953,3.2952,3.296,3.296,3.2964,3.2962,3.2962,3.2964,3.2965,3.2963,3.2962,3.2962,3.2963,3.2968,3.2968,3.2968,3.2968,0,3.2905,3.2913,3.2913,3.2921,3.2924,3.2922,3.2929,3.2928,3.2933,3.2933,3.2933,3.2941,3.2941,3.2948,3.2949,3.2952,3.2948,3.295,3.2947,3.2947,3.2942,3.2942,3.2925,3.2923,3.2942,3.2942,3.2942,0,3.2895,3.2894,3.2903,3.2904,3.2907,3.2909,3.2911,3.2919,3.2921,3.2926,3.2925,3.2927,3.2928,3.2929,3.2934,3.2935,3.2938,3.2931,3.2938,3.2936,3.2937,3.2937,3.2936,3.293,3.2929,3.2929,3.2929,0,3.2876,3.2881,3.2883,3.2888,3.289,3.2893,3.2897,3.2898,3.2907,3.2908,3.291,3.2912,3.2914,3.2916,3.2919,3.2921,3.2926,3.2927,3.2926,3.2923,3.2921,3.2922,3.2942,3.2927,3.2927,3.2928,3.2928,3.2928,3.2861,3.286,3.2867,3.287,3.2875,3.2879,3.2879,3.2885,3.2887,3.2891,3.2896,3.2897,3.2901,3.2906,3.2908,3.2909,3.2912,3.291,3.2909,3.2909,3.2908,3.2922,3.2909,3.2909,3.2909,3.2909,3.2909,0,3.2842,3.2847,3.285,3.2856,3.2859,3.2866,3.2871,3.2872,3.2873,3.2878,3.288,3.2882,3.2884,3.289,3.2893,3.2892,3.2894,3.2892,3.2892,3.2892,3.2905,3.2905,3.289,3.289,3.289,3.289,3.289,3.289,3.2832,3.2832,3.2838,3.284,3.2845,3.2848,3.285,3.2854,3.2857,3.286,3.2862,3.2867,3.2872,3.2875,3.2877,3.2879,3.2879,3.2875,3.2878,3.2889,3.2891,3.2893,3.2893,3.2876,3.2876,3.2865,3.2865,3.2865]}]]